Home > Weather > Krems > Past weeks

Flag for Austria Past Weather in Krems, Lower Austria, Austria — Yesterday and Last 2 Weeks

Now
57 °F

Passing clouds.


Feels Like: 56 °F
Forecast: 54 / 77 °F
Wind: 7 mph from Southwest

Location: Tulln Airport

Current Time: Jun 28, 2016 at 12:21:25 AM

Latest Report: Jun 27, 2016 at 10:50 PM


Visibility: 19 mi

Pressure: 30.09 "Hg

Humidity: 88%

Dew Point: 54 °F

Location of KremsLocation

Past Weather in Krems — Graph

°F

Krems Temperature Yesterday

Maximum temperature yesterday: 66 °F (at 3:20 PM)
Minimum temperature yesterday: 57 °F (at 10:50 PM)
Average temperature yesterday: 62 °F

High & Low Weather Summary for the Past Weeks

 TemperatureHumidityPressure
High91 °F (Jun 24, 2:50 PM)100% (Jun 15, 9:50 AM)30.30 "Hg (Jun 15, 9:50 AM)
Low54 °F (Jun 21, 5:50 AM)34% (Jun 18, 2:50 PM)29.53 "Hg (Jun 14, 4:50 PM)
Average70 °F69%29.94 "Hg
* Reported Jun 12 10:50 PM — Jun 27 10:50 PM, Krems, Weather by CustomWeather, © 2016

Note: Actual official high and low records may vary slightly from our data, if they occured in-between our weather recording intervals... More about our weather records

Advertising

Krems Weather History for the Previous 24 Hours

Scroll right to see more
 ConditionsComfort  
Time TempWeatherWind HumidityBarometerVisibility
10:50 PM
Mon, Jun 27
57 °FPassing clouds.7 mph88%30.09 "Hg19 mi
9:50 PM61 °FPartly sunny.8 mph88%30.09 "Hg25 mi
8:50 PM64 °FBroken clouds.6 mph83%30.07 "Hg25 mi
7:50 PM64 °FPartly sunny.7 mph83%30.07 "Hg25 mi
6:50 PM66 °FPartly sunny.10 mph78%30.07 "Hg25 mi
5:50 PM66 °FBroken clouds.9 mph73%30.07 "Hg19 mi
4:50 PM66 °FBroken clouds.12 mph73%30.09 "Hg16 mi
3:50 PM66 °FBroken clouds.15 mph78%30.09 "Hg16 mi
3:20 PM66 °FBroken clouds.13 mph78%30.09 "Hg16 mi
2:50 PM64 °FBroken clouds.14 mph83%30.09 "Hg12 mi
1:50 PM61 °FBroken clouds.10 mph94%30.12 "Hg9 mi
12:50 PM61 °FBroken clouds.14 mph94%30.12 "Hg6 mi
11:50 AM59 °FLight rain. Fog.17 mph100%30.12 "Hg1 mi
10:50 AM61 °FLight rain. Broken clouds.15 mph94%30.09 "Hg6 mi
9:50 AM59 °FLight rain. Broken clouds.13 mph100%30.09 "Hg6 mi
8:50 AM59 °FRain. Broken clouds.14 mph100%30.09 "Hg4 mi
7:50 AM59 °FRain. Broken clouds.14 mph100%30.07 "Hg4 mi
6:50 AM63 °FBroken clouds.12 mph88%30.07 "Hg9 mi
5:50 AM61 °FPartly cloudy.10 mph94%30.04 "Hg9 mi
Weather by CustomWeather, © 2016

See weather overviewHow to use our weather pages